User: anonymous   Login
Location: Unspecified
(0.0000°N, 0.0000°E)
Time: 02:07:30
(UTC+00:00)
Language:

Interbol-2 - Orbit

View from above orbital plane
View from above orbital plane
View from above satellite
View from above satellite

Ground track
Ground track

The orbit data is extracted from the following two-line orbital elements,

1 24292U 96050B   24109.31153724  .00000045  00000-0  22254-3 0  9998
2 24292  62.8041  91.3755 5603996 254.8774  39.4688  4.14716455418465
Epoch (UTC): 18 April 2024 07:28:36
Eccentricity: 0.5603996
inclination: 62.8041°
perigee height: 815 km
apogee height: 19157 km
right ascension of ascending node: 91.3755°
argument of perigee: 254.8774°
revolutions per day: 4.14716455
mean anomaly at epoch: 39.4688°
orbit number at epoch: 41846

The dashed part of the orbit path shows where the satellite is in the earth's shadow,  

DLR